Погода в Таупо

Новая Зеландия     38°41′35″S   176°04′33″E
темп.,
°C
ветер,
м/с
пор.,
м/с
влажн.,
%
обл.,
%
осадки,
мм/ч
давл.,
гПа
погр.,
м
17 апреля, сб
сб1700:00+15з8117353 0.1 10071239
03:00+14з697630 0.1 1006988
06:00+14з5877100 0.3 1006824
09:00+13зюз8107594 0.6 1007803
12:00+14зюз67554 0.6 10071296
15:00+15зюз99494 0.1 10071148
18:00+14ююз56523 0.1 10101200
21:00+11ю44660 0.0 1013492
18 апреля, вс
вс1800:00+9юз22710 0.0 1015461
03:00+9зюз35742 0.0 1015518
06:00+8зюз35765 0.0 1016442
09:00+10юз357192 0.0 1017525
12:00+13зюз4659100 0.0 1016663
15:00+15з776317 0.0 10151216
18:00+14з78715 0.0 1016829
21:00+12з478211 0.0 1017594
19 апреля, пн
пн1900:00+11з588018 0.0 1018658
03:00+11зюз4782100 0.0 1018567
06:00+10зюз478194 0.0 1019534
09:00+12з3673100 0.0 1020623
12:00+15зюз566189 0.0 10191271
15:00+16зюз5658100 0.0 10181075
18:00+15зюз4563100 0.0 1019897
21:00+13зсз2374100 0.0 1020393
20 апреля, вт
вт2000:00+11сз127889 0.0 1020244
03:00+10ссв118393 0.0 1020201
06:00+10св228552 0.0 1020219
09:00+11всв2282100 0.0 1020306
12:00+14св3674100 0.1 1017806
15:00+15св6977100 0.5 1013854
18:00+14всв51391100 5.9 1010767
21:00+15с41091100 4.8 1009617
21 апреля, ср
ср2100:00+15св1495100 6.9 1006259
03:00+15с4790100 2.1 1005566
06:00+15ссз3581100 2.3 1004691
09:00+15ссв24828 0.3 1004299
12:00+17ссз1269100 0.5 1003650
15:00+16юз127544 0.3 1002467
18:00+16зсз24764 0.3 1004344
21:00+15зюз34835 0.0 1006316